DW4993 Weather Reports


Display with metric or nautical units.
time (UTC)temp
F
wind
direction
speed
MPH
gust
MPH
rain 1hr
in
rain 24hr
in
rain mn
in
humidity
%
barometer
mb
20260904200805 62 26 3.0 7.0 0.00 0.00 0.00 58 1018.7
20260904200305 61 9 2.0 8.0 0.00 0.00 0.00 61 1018.6
20260904195805 60 56 2.0 8.0 0.00 0.00 0.00 61 1018.6
20260904194805 60 15 3.0 10.0 0.00 0.00 0.00 62 1018.6
20260904194304 60 53 5.0 12.0 0.00 0.00 0.00 62 1018.0
20260904193805 61 336 3.0 13.0 0.00 0.00 0.00 60 1017.9
20260904193305 61 25 4.0 14.0 0.00 0.01 0.00 61 1017.7
20260904192805 60 340 3.0 10.0 0.00 0.01 0.00 63 1017.8
20260904192306 59 29 3.0 12.0 0.00 0.03 0.00 63 1017.7
20260904191804 59 348 4.0 10.0 0.00 0.06 0.00 64 1017.8
20260904191305 58 20 3.0 9.0 0.00 0.08 0.00 65 1017.8
20260904190805 58 29 2.0 9.0 0.00 0.10 0.00 65 1017.5
20260904190305 58 30 2.0 9.0 0.00 0.12 0.00 66 1017.7
20260904185806 58 28 4.0 10.0 0.00 0.14 0.00 66 1017.7
20260904185306 59 353 5.0 10.0 0.00 0.16 0.00 65 1017.8
20260904184804 59 57 3.0 10.0 0.00 0.17 0.00 66 1018.0
20260904184305 59 46 2.0 8.0 0.00 0.18 0.00 69 1017.9
20260904183805 58 46 2.0 9.0 0.00 0.20 0.00 69 1018.0
20260904183305 57 51 1.0 9.0 0.00 0.20 0.00 71 1017.9
20260904182306 57 54 3.0 8.0 0.00 0.21 0.00 69 1018.0
20260904181305 57 3 4.0 10.0 0.00 0.21 0.00 69 1018.1
20260904180805 57 32 3.0 10.0 0.00 0.21 0.00 70 1018.2
20260904180304 57 25 3.0 10.0 0.00 0.21 0.00 70 1018.0
20260904175806 57 4 2.0 9.0 0.00 0.21 0.00 71 1017.7
20260904175305 57 60 3.0 8.0 0.00 0.21 0.00 72 1017.8
20260904174804 56 341 3.0 10.0 0.00 0.21 0.00 75 1018.0
20260904173805 56 48 1.0 7.0 0.00 0.21 0.00 76 1018.0
20260904173305 56 313 3.0 9.0 0.00 0.21 0.00 75 1017.9
20260904172804 56 27 3.0 10.0 0.00 0.21 0.00 75 1017.8
20260904172306 55 19 2.0 7.0 0.00 0.21 0.00 74 1017.9
20260904171806 55 19 2.0 10.0 0.00 0.21 0.00 74 1018.4
20260904170805 55 356 2.0 8.0 0.00 0.21 0.00 73 1018.1
20260904170306 55 56 2.0 8.0 0.00 0.21 0.00 74 1018.0
20260904165805 55 15 2.0 10.0 0.00 0.21 0.00 75 1018.0
20260904165305 55 13 3.0 8.0 0.00 0.21 0.00 74 1017.8
20260904163805 54 35 2.0 6.0 0.00 0.21 0.00 77 1017.8
20260904163305 54 35 1.0 3.0 0.00 0.21 0.00 78 1017.8
20260904162805 53 0 2.0 9.0 0.00 0.21 0.00 79 1017.7
20260904161804 54 347 1.0 7.0 0.00 0.21 0.00 78 1017.4
20260904161304 54 49 1.0 5.0 0.00 0.21 0.00 77 1017.5
20260904160805 53 20 1.0 5.0 0.00 0.21 0.00 77 1017.7
20260904160305 53 1 1.0 3.0 0.00 0.21 0.00 76 1017.6
20260904155804 53 354 1.0 3.0 0.00 0.21 0.00 76 1017.6
20260904155306 53 7 1.0 3.0 0.00 0.21 0.00 75 1017.5
20260904154804 53 17 1.0 5.0 0.00 0.21 0.00 73 1017.3
20260904154306 52 8 1.0 2.0 0.00 0.21 0.00 72 1017.0
20260904153804 52 9 1.0 3.0 0.00 0.21 0.00 71 1017.0
20260904153305 52 0 1.0 3.0 0.00 0.21 0.00 70 1017.0
20260904152804 52 28 1.0 3.0 0.00 0.21 0.00 69 1017.0
20260904152306 52 5 1.0 3.0 0.00 0.21 0.00 68 1016.9
20260904151805 52 339 1.0 3.0 0.00 0.21 0.00 68 1016.9
20260904150805 52 342 1.0 5.0 0.00 0.21 0.00 66 1016.8
20260904150304 52 344 1.0 3.0 0.00 0.21 0.00 66 1016.4
20260904145804 52 31 1.0 5.0 0.00 0.21 0.00 66 1016.4
20260904145306 52 76 1.0 3.0 0.00 0.21 0.00 65 1016.4
20260904144805 52 326 1.0 3.0 0.00 0.21 0.00 65 1016.3
20260904144305 52 344 1.0 5.0 0.00 0.21 0.00 64 1016.3
20260904143804 52 347 2.0 5.0 0.00 0.21 0.00 65 1016.2
20260904143304 51 351 1.0 5.0 0.00 0.21 0.00 65 1016.1
20260904142805 51 355 1.0 3.0 0.00 0.21 0.00 65 1016.2
20260904142306 51 326 1.0 5.0 0.00 0.21 0.00 64 1015.8
20260904141305 51 0 1.0 5.0 0.00 0.21 0.00 64 1015.7
20260904140805 51 336 2.0 5.0 0.00 0.21 0.00 64 1015.5
20260904140304 51 28 1.0 3.0 0.00 0.21 0.00 64 1015.3
20260904135804 51 345 1.0 3.0 0.00 0.21 0.00 65 1015.4
20260904135306 50 346 2.0 5.0 0.00 0.21 0.00 64 1015.1
20260904134805 50 338 2.0 5.0 0.00 0.21 0.00 65 1015.1
20260904134305 50 22 1.0 3.0 0.00 0.21 0.00 66 1015.1
20260904133304 49 19 1.0 3.0 0.00 0.22 0.00 67 1015.1
20260904132805 48 23 1.0 3.0 0.00 0.23 0.00 68 1014.8
20260904132306 48 217 0.0 1.0 0.00 0.24 0.00 70 1015.0
20260904131306 47 217 0.0 1.0 0.00 0.24 0.00 71 1014.9
20260904130304 46 217 0.0 1.0 0.00 0.24 0.00 73 1014.4
20260904125805 46 217 0.0 1.0 0.00 0.24 0.00 73 1014.6
20260904125306 46 217 0.0 0.0 0.00 0.24 0.00 74 1014.4
20260904124805 46 217 0.0 1.0 0.00 0.24 0.00 74 1014.6
20260904124305 46 217 0.0 0.0 0.00 0.24 0.00 74 1014.5
20260904123804 46 217 0.0 0.0 0.00 0.24 0.00 74 1014.3
20260904123305 46 217 0.0 0.0 0.00 0.24 0.00 74 1014.1
20260904122805 46 217 0.0 0.0 0.00 0.24 0.00 74 1014.1
20260904122306 47 217 0.0 0.0 0.00 0.24 0.00 73 1013.9
20260904121306 47 217 0.0 0.0 0.00 0.24 0.00 71 1013.9
20260904120805 48 217 0.0 0.0 0.00 0.24 0.00 71 1013.6
20260904120304 48 217 0.0 0.0 0.00 0.24 0.00 70 1013.5
20260904115306 47 217 0.0 0.0 0.00 0.24 0.00 72 1013.3
20260904114304 48 217 0.0 0.0 0.00 0.24 0.00 70 1013.0
20260904113804 48 217 0.0 0.0 0.00 0.24 0.00 69 1013.1
20260904113305 47 217 0.0 0.0 0.00 0.24 0.00 69 1013.1
20260904112804 47 217 0.0 0.0 0.00 0.24 0.00 69 1013.0
20260904112306 47 217 0.0 0.0 0.00 0.24 0.00 69 1013.1
20260904111304 47 217 0.0 1.0 0.00 0.24 0.00 68 1012.8
20260904110805 46 217 1.0 1.0 0.00 0.24 0.00 70 1012.9
20260904110305 46 217 0.0 0.0 0.00 0.24 0.00 71 1012.8
20260904105306 47 217 0.0 0.0 0.00 0.24 0.00 68 1012.9
20260904104804 47 217 0.0 0.0 0.00 0.24 0.00 67 1012.7
20260904104305 48 217 0.0 1.0 0.00 0.24 0.00 66 1012.8
20260904103805 48 217 0.0 1.0 0.00 0.24 0.00 65 1012.5
20260904102804 48 197 0.0 1.0 0.00 0.24 0.00 65 1012.6
20260904102306 49 177 0.0 1.0 0.00 0.24 0.00 65 1012.4
20260904101806 48 178 0.0 1.0 0.00 0.24 0.00 65 1012.5
20260904100805 48 176 0.0 1.0 0.00 0.24 0.00 67 1012.3
20260904100304 48 176 0.0 1.0 0.00 0.24 0.00 67 1012.5
20260904095805 48 176 0.0 1.0 0.00 0.24 0.00 66 1012.5
20260904095306 48 176 0.0 1.0 0.00 0.24 0.00 66 1012.3
20260904094305 49 176 0.0 1.0 0.00 0.24 0.00 65 1012.5
20260904093805 49 176 0.0 1.0 0.00 0.24 0.00 64 1012.6
20260904093305 49 176 0.0 1.0 0.00 0.24 0.00 64 1012.6
20260904092804 48 176 0.0 0.0 0.00 0.24 0.00 66 1012.8
20260904092306 48 176 0.0 0.0 0.00 0.24 0.00 66 1012.6
20260904091805 49 176 0.0 1.0 0.00 0.24 0.00 65 1012.7
20260904091305 48 176 0.0 1.0 0.00 0.24 0.00 66 1012.8
20260904090305 47 176 0.0 1.0 0.00 0.24 0.00 67 1013.1
20260904085806 48 176 0.0 1.0 0.00 0.24 0.00 66 1012.9
20260904085306 48 176 0.0 0.0 0.00 0.24 0.00 65 1012.9
20260904084805 49 176 0.0 1.0 0.00 0.24 0.00 64 1013.2
20260904084304 49 176 0.0 2.0 0.00 0.24 0.00 64 1013.4
20260904083805 48 175 0.0 1.0 0.00 0.24 0.00 65 1013.7
20260904083304 48 175 0.0 1.0 0.00 0.24 0.00 67 1013.7
20260904082804 48 175 0.0 1.0 0.00 0.24 0.00 67 1013.8
20260904082306 48 175 0.0 0.0 0.00 0.24 0.00 67 1014.0
20260904081805 48 175 0.0 0.0 0.00 0.24 0.00 67 1013.9
20260904081304 48 175 0.0 0.0 0.00 0.24 0.00 67 1014.1
20260904080804 48 175 0.0 0.0 0.00 0.24 0.00 66 1014.0
20260904080305 49 175 0.0 0.0 0.00 0.24 0.00 66 1014.0
20260904075804 50 175 0.0 0.0 0.00 0.24 0.00 64 1013.8
20260904075306 50 175 0.0 2.0 0.00 0.24 0.00 62 1013.7
20260904074305 51 164 1.0 2.0 0.00 0.24 0.00 60 1013.6
20260904073804 51 164 0.0 1.0 0.00 0.24 0.00 61 1013.6
20260904073304 51 164 0.0 2.0 0.00 0.24 0.00 60 1013.6
20260904072805 52 163 1.0 2.0 0.00 0.24 0.00 59 1013.7
20260904072306 52 164 1.0 2.0 0.00 0.24 0.00 58 1013.5
20260904071804 52 168 1.0 3.0 0.00 0.24 0.00 58 1013.5
20260904071304 52 209 1.0 3.0 0.00 0.24 0.00 58 1013.2
20260904070805 52 167 1.0 3.0 0.00 0.24 0.00 58 1013.3
20260904070305 52 166 1.0 2.0 0.00 0.24 0.00 58 1012.9
20260904065805 52 166 1.0 2.0 0.00 0.24 0.00 58 1013.0
20260904065306 53 166 1.0 3.0 0.00 0.24 0.00 57 1012.8
20260904064804 53 177 1.0 2.0 0.00 0.24 0.00 56 1012.6
20260904064306 54 207 1.0 2.0 0.00 0.24 0.00 55 1012.4
20260904063804 55 237 0.0 2.0 0.00 0.24 0.00 53 1012.1
20260904063304 55 218 1.0 2.0 0.00 0.24 0.00 51 1011.6
20260904062804 55 228 1.0 5.0 0.00 0.24 0.00 50 1011.8
20260904062306 54 232 2.0 5.0 0.00 0.24 0.00 51 1011.5
20260904061804 52 234 2.0 6.0 0.00 0.24 0.00 54 1011.6
20260904060817 53 160 0.0 2.0 0.00 0.24 0.00 57 1011.5
20260904060304 53 160 0.0 1.0 0.00 0.24 0.00 55 1011.3
20260904055805 54 160 0.0 2.0 0.00 0.24 0.24 55 1011.4
20260904055306 54 160 1.0 2.0 0.00 0.24 0.24 54 1011.4
20260904054804 54 152 1.0 2.0 0.00 0.24 0.24 54 1011.0
20260904054304 54 167 1.0 2.0 0.00 0.24 0.24 54 1011.0
20260904053805 54 296 0.0 1.0 0.00 0.24 0.24 52 1011.1
20260904053305 55 296 0.0 1.0 0.00 0.24 0.24 52 1010.9
20260904052805 55 296 0.0 3.0 0.00 0.24 0.24 51 1010.6
20260904052307 55 267 0.0 1.0 0.00 0.24 0.24 51 1010.5
20260904051806 56 267 0.0 1.0 0.00 0.24 0.24 50 1010.4
20260904051305 56 267 1.0 2.0 0.00 0.24 0.24 49 1010.3
20260904050804 56 266 2.0 3.0 0.00 0.24 0.24 49 1010.3
20260904050305 55 263 1.0 2.0 0.00 0.24 0.24 51 1010.2
20260904045806 56 259 0.0 1.0 0.00 0.24 0.24 52 1010.2
20260904045307 56 259 0.0 1.0 0.00 0.24 0.24 50 1010.3
20260904044805 56 259 1.0 5.0 0.00 0.24 0.24 51 1010.2
20260904044306 56 286 1.0 3.0 0.00 0.24 0.24 51 1010.2
20260904043804 56 269 0.0 2.0 0.00 0.24 0.24 51 1010.1
20260904043305 57 260 0.0 1.0 0.00 0.24 0.24 51 1010.0
20260904042805 57 260 0.0 1.0 0.00 0.24 0.24 50 1010.0
20260904041805 58 255 1.0 3.0 0.00 0.24 0.24 48 1009.9
20260904040304 59 259 1.0 3.0 0.00 0.24 0.24 47 1010.0
20260904035804 59 245 2.0 3.0 0.00 0.24 0.24 46 1009.9
20260904035306 60 261 1.0 7.0 0.00 0.24 0.24 46 1009.9
20260904034805 60 263 2.0 7.0 0.00 0.24 0.24 45 1009.9
20260904034304 61 255 2.0 7.0 0.00 0.24 0.24 44 1010.0
20260904033804 61 259 2.0 7.0 0.00 0.24 0.24 44 1010.0
20260904033305 60 275 2.0 6.0 0.00 0.24 0.24 44 1009.9
20260904032806 60 265 3.0 7.0 0.00 0.24 0.24 46 1010.0
20260904032306 60 272 3.0 6.0 0.00 0.24 0.24 48 1010.1
20260904031804 60 261 2.0 5.0 0.00 0.24 0.24 62 1010.3
20260904030805 60 48 0.0 3.0 0.00 0.24 0.24 69 1010.1
20260904030305 60 54 1.0 3.0 0.00 0.24 0.24 69 1009.9
20260904025804 60 344 1.0 3.0 0.00 0.24 0.24 69 1009.8
20260904024805 59 357 3.0 7.0 0.00 0.24 0.24 73 1009.9
20260904024304 58 340 2.0 5.0 0.00 0.24 0.24 73 1009.9
20260904023304 59 56 0.0 2.0 0.00 0.24 0.24 72 1009.4
20260904022805 60 62 2.0 6.0 0.00 0.24 0.24 71 1009.4
20260904022306 60 78 2.0 5.0 0.00 0.24 0.24 70 1009.3
20260904021804 60 71 1.0 3.0 0.00 0.24 0.24 70 1009.0
20260904021304 60 71 2.0 5.0 0.00 0.24 0.24 69 1009.1
20260904020805 61 102 1.0 3.0 0.00 0.24 0.24 68 1009.0
20260904020304 61 86 1.0 7.0 0.00 0.24 0.24 67 1009.0
20260904015805 61 69 2.0 6.0 0.00 0.24 0.24 67 1008.9
20260904015306 61 58 1.0 5.0 0.00 0.24 0.24 67 1008.9
20260904014805 62 85 1.0 5.0 0.00 0.24 0.24 66 1008.9
20260904014304 62 74 2.0 5.0 0.00 0.24 0.24 65 1009.0
20260904013804 62 71 2.0 5.0 0.00 0.24 0.24 64 1008.8
20260904013305 63 118 1.0 2.0 0.00 0.24 0.24 63 1008.7
20260904012805 63 55 1.0 5.0 0.00 0.24 0.24 62 1008.6
20260904012306 64 78 2.0 5.0 0.00 0.24 0.24 60 1008.4
20260904011804 64 43 1.0 3.0 0.00 0.24 0.24 59 1008.3
20260904011304 65 106 1.0 2.0 0.00 0.24 0.24 57 1008.3
20260904010805 65 66 2.0 6.0 0.00 0.24 0.24 55 1008.1
20260904010304 66 91 2.0 6.0 0.00 0.24 0.24 54 1008.1
20260904005306 66 108 1.0 7.0 0.00 0.24 0.24 53 1008.1
20260904004804 66 116 1.0 3.0 0.00 0.24 0.24 52 1008.0
20260904004305 67 127 1.0 2.0 0.00 0.24 0.24 52 1008.1
20260904003804 66 109 1.0 2.0 0.00 0.24 0.24 54 1008.2
20260904003306 67 191 1.0 3.0 0.00 0.24 0.24 53 1008.0
20260904002306 68 188 1.0 3.0 0.00 0.24 0.24 51 1007.8
20260904001805 67 145 1.0 3.0 0.00 0.24 0.24 52 1008.0
20260904001305 67 131 1.0 3.0 0.00 0.24 0.24 51 1007.7
20260904000804 67 106 1.0 5.0 0.00 0.24 0.24 51 1007.7
20260904000304 68 122 1.0 5.0 0.00 0.24 0.24 49 1007.5
20260903234804 70 111 1.0 7.0 0.00 0.24 0.24 47 1007.3
20260903234304 69 160 1.0 7.0 0.00 0.24 0.24 45 1007.5
20260903233804 69 57 1.0 3.0 0.00 0.24 0.24 46 1007.6
20260903233305 70 158 2.0 3.0 0.00 0.24 0.24 45 1007.6
20260903232804 70 179 1.0 5.0 0.00 0.24 0.24 44 1007.6
20260903232306 69 217 1.0 5.0 0.00 0.24 0.24 45 1007.3
20260903231804 70 59 1.0 2.0 0.00 0.24 0.24 45 1007.3
20260903231305 70 100 0.0 2.0 0.00 0.24 0.24 45 1007.1
20260903230804 71 195 1.0 3.0 0.00 0.24 0.24 44 1007.0
20260903230304 70 251 1.0 3.0 0.00 0.24 0.24 43 1007.1
20260903225804 70 100 1.0 3.0 0.00 0.24 0.24 43 1007.3
20260903225306 70 62 1.0 2.0 0.00 0.24 0.24 43 1007.2
20260903224804 69 326 1.0 3.0 0.00 0.24 0.24 45 1007.2
20260903224304 68 13 0.0 2.0 0.00 0.24 0.24 47 1007.5
20260903223305 67 331 1.0 3.0 0.00 0.24 0.24 47 1007.2
20260903221804 69 45 0.0 2.0 0.00 0.24 0.24 48 1007.3
20260903221305 68 26 1.0 3.0 0.00 0.24 0.24 50 1007.3
20260903220804 66 4 0.0 2.0 0.00 0.24 0.24 50 1007.8
20260903220304 66 4 0.0 2.0 0.00 0.24 0.24 52 1007.9
20260903215804 64 5 0.0 1.0 0.00 0.24 0.24 58 1008.2
20260903214804 64 5 0.0 1.0 0.00 0.24 0.24 59 1008.0
20260903214304 64 5 0.0 2.0 0.00 0.24 0.24 59 1007.7
20260903212306 64 12 0.0 3.0 0.00 0.24 0.24 59 1008.1
20260903211805 64 11 2.0 3.0 0.00 0.24 0.24 60 1007.8
20260903211305 63 343 2.0 3.0 0.00 0.24 0.24 60 1008.3
20260903210804 62 339 0.0 3.0 0.00 0.24 0.24 64 1008.4
20260903210304 61 10 1.0 3.0 0.00 0.24 0.24 64 1008.3
20260903205804 60 9 1.0 6.0 0.00 0.24 0.24 70 1008.4
20260903205306 60 28 2.0 3.0 0.00 0.24 0.24 69 1008.4
20260903204804 59 345 1.0 2.0 0.00 0.24 0.24 74 1008.7
20260903203305 57 352 2.0 5.0 0.01 0.24 0.24 77 1008.8
20260903202804 57 353 2.0 6.0 0.01 0.24 0.24 80 1009.0
20260903202306 57 345 3.0 6.0 0.03 0.24 0.24 78 1008.8
20260903201804 56 347 2.0 3.0 0.06 0.24 0.24 81 1008.9
20260903201305 56 10 1.0 5.0 0.08 0.24 0.24 82 1008.9